Tracking 31027 objects as of 19-Jul-2025
HD Live streaming from Space Station
objects crossing your sky now

AMC-9 (GE-12)

Track AMC-9 (GE-12) now!
AMC-9 (GE-12) is classified as:


NORAD ID: 27820
Int'l Code: 2003-024A
Perigee: 36,075.6 km
Apogee: 36,216.2 km
Inclination: 7.1 °
Period: 1,454.1 minutes
Semi major axis: 42516 km
RCS: 43.0775 m2 (large)
Launch date: June 6, 2003
Source: SOCIETE EUROPEENNE DES SATELLITES (SES)
Launch site: TYURATAM MISSILE AND SPACE COMPLEX (TTMTR)

Television programmers, government agencies and enterprise networks; 24 Ku-band; CONUS and Mexico.
Your satellite tracking list
STARLINK-5403
Track 1 satellite(s)




NASA's NSSDC Master Catalog

Two Line Element Set (TLE):
1 27820U 03024A   25199.43238777  .00000055  00000-0  00000-0 0  9995
2 27820   7.0818  69.5092 0016533 351.2948 279.1114  0.99028618 80686
Source of the keplerian elements: AFSPC